OAO 2

Last updated on Tue Jul 01 2025 00:02:13 GMT+0000 (Coordinated Universal Time)

1 03597U 68110A 25181.20231840 .00000113 00000+0 35674-4 0 9990 2 03597 34.9922 234.7003 0005875 328.6088 31.4251 14.47122514982538
UTC large
Height (km)
Speed (km/s)
/
Latitude / Longitude
Inclination (degrees)
Orbital Period (minutes)
Azimuth
Elevation
Range (km)
Doppler Factor

Next 0 passes for location: London (51.5072 / 0.1276)

Sorry there are no passes over London.